Regional Weather Roundup
Issued by NWS

Current Version | Previous Version | Text Only | Print | Product List | Glossary Off
Versions: 1 2 3 4 5 6 7 8 9 10 11 12 13 14 15 16 17 18 19 20 21 22 23 24 25 26 27 28
000 ASUS45 KSLC 201510 RWRUT UTAH REGIONAL WEATHER ROUNDUP NATIONAL WEATHER SERVICE SALT LAKE CITY UT 900 AM MDT FRI MAY 20 2022 UTZ101>105-107>111-201600- NORTHERN UTAH CITY SKY/WX TMP DP RH WIND PRES REMARKS BRIGHAM CITY CLOUDY 44 15 32 MISG 29.93S HILL AFB MOSUNNY 42 22 45 NE5 29.90R LOGAN CLOUDY 40 25 55 N13 29.94R WCI 32 OGDEN MOSUNNY 46 22 38 NW10 29.91R SALT LAKE CITY MOSUNNY 47 22 37 VRB6 29.92R TOOELE VALLEY CLOUDY 41 28 60 NW13G22 29.94R WENDOVER MOSUNNY 44 20 38 NW18G28 29.98R HEBER CITY N/A 41 14 33 NE3 29.86R WEST JORDAN PTSUNNY 42 27 55 NW6G18 29.92R $$ UTZ024>027-106-112>120-201600- CENTRAL/NORTHEAST UTAH CITY SKY/WX TMP DP RH WIND PRES REMARKS PROVO AIRPORT PTSUNNY 46 22 38 N15G23 29.91R MOAB/CANYONLAN CLOUDY 53 21 28 NE18G24 29.74R DELTA SUNNY 41 18 38 N16G24 29.93R MANTI CLOUDY 42 18 39 NW15 29.87S PRICE PTSUNNY 45 13 27 N9 29.80S DUCHESNE SUNNY 45 12 26 NW16G25 29.81R VERNAL CLOUDY 39 27 62 E7 29.84R WCI 34 $$ UTZ121>131-201600- SOUTHERN UTAH CITY SKY/WX TMP DP RH WIND PRES REMARKS BRYCE CANYON SUNNY 38 11 32 NW18G30 29.83R WCI 28 CEDAR CITY SUNNY 44 7 21 N15 29.88S MILFORD SUNNY 44 11 26 N14G25 29.90S PANGUITCH SUNNY 39 7 26 NW17 29.88S WCI 30 ST GEORGE PTSUNNY 60 14 16 S9 29.74R HANKSVILLE PTSUNNY 54 12 19 NW15 29.81R KANAB SUNNY 57 18 21 NE13G21 29.74R BLANDING N/A 61 24 24 NW22G29 29.75R $$ REGIONAL REPORTS COLORADO/ARIZONA CITY SKY/WX TMP DP RH WIND PRES REMARKS CRAIG, CO LGT SNOW 30 28 92 S3 29.87R VSB 3/4 GRAND JUNCTION CLOUDY 46 25 43 NE16G30 29.79R RIFLE, CO LGT SNOW 34 31 88 SW6 29.86S FOG WCI 29 MONTROSE, CO PTSUNNY 48 25 40 NW16 29.76R CORTEZ, CO SUNNY 67 25 20 SW25G35 29.68S COLORADO CITY N/A 57 18 21 NW21G31 29.76R PAGE, AZ SUNNY 62 22 21 NW13G18 29.68R GRAND CANYON SUNNY 58 29 33 SW16G28 29.78R KINGMAN, AZ SUNNY 74 34 23 SW18G26 29.67R FLAGSTAFF, AZ SUNNY 54 25 32 SW16G24 29.82F $$ REGIONAL REPORTS NEVADA/IDAHO/WYOMING CITY SKY/WX TMP DP RH WIND PRES REMARKS LAS VEGAS, NV MOSUNNY 70 16 12 N29G40 29.66R ELY, NY SUNNY 36 13 38 N23G30 29.96R WCI 24 ELKO, NV CLOUDY 38 17 42 VRB3 30.03R POCATELLO, ID LGT SNOW 36 32 85 SW12 30.01R FOG WCI 28 BURLEY, ID PTSUNNY 38 27 64 W13G24 30.01R WCI 30 EVANSTON, WY PTSUNNY 33 14 45 N14G22 29.87R WCI 23 ROCK SPRINGS, MOSUNNY 35 15 44 NE9 29.87R WCI 28 KEMMERER, WY PTSUNNY 32 19 59 NW15G26 29.87R WCI 22 $$

USA.gov is the U.S. government's official web portal to all federal, state and local government web resources and services.